Terug naar catalogus

STARLINK-32004

ActiefCommunicatieVLEO
NORAD 60151·PAYLOAD·🇺🇸 United States

Gelanceerd Jun 27, 2024 vanaf Cape Canaveral Space Force Station

Loading…

Volgende Passages (komende 24 uur)

TLE

VersSource: CelesTrak SupGP

Epoch: Sep 15, 2026, 02:26 UTC

1 60151C 24120S   26258.10187500 -.00019127  00000+0 -56517-3 0  2583
2 60151  53.1568 157.1091 0001275  77.2239  99.8567 15.34396336    10

Volg STARLINK-32004 in realtime met AllMySat

Download on the App Store